This demonstration page uses our WeatherBlox Daily Observations layout. Learn more.

Left ArrowRight Arrow

36.17497, -115.13722

Hourly Observations for July 28, 2021

Temp ( °F °C ) Dew Point ( °F °C ) Humidity (%) Winds ( mph kmh ) Pressure ( in mb ) Visibility ( mi km ) Precip ( " mm )
12:53 am 00:53 Clear 88 31.1 57 13.9 35 35 N N/A 29.94 1014 10 16 N/A
1:53 am 01:53 Clear 88 31.1 57 13.9 35 35 NW 5 7 29.94 1014 10 16 N/A
2:53 am 02:53 Clear 87 30.6 59 15 39 39 W 3 6 29.94 1014 10 16 N/A
3:53 am 03:53 Clear 86 30 58 14.4 39 39 WNW 3 6 29.94 1014 10 16 N/A
4:53 am 04:53 Clear 87 30.6 54 12.2 32 32 WNW 5 7 29.94 1014 10 16 N/A
5:53 am 05:53 Sunny 86 30 56 13.3 36 36 W 6 9 29.97 1015 9 14 N/A
6:53 am 06:53 Mostly Sunny 88 31.1 52 11.1 29 29 N 6 9 29.98 1015 10 16 N/A
7:53 am 07:53 Sunny 89 31.7 52 11.1 28 28 NNW 3 6 30.00 1016 10 16 N/A
8:53 am 08:53 Sunny 93 33.9 53 11.7 26 26 NE 6 9 30.00 1016 10 16 N/A
9:53 am 09:53 Sunny 96 35.6 52 11.1 23 23 VRB 3 6 29.99 1016 10 16 N/A
10:53 am 10:53 Sunny 97 36.1 52 11.1 22 22 S 5 7 29.99 1016 10 16 N/A
11:53 am 11:53 Sunny 101 38.3 50 10 18 18 E 5 7 29.97 1015 10 16 N/A
12:53 pm 12:53 Sunny 103 39.4 49 9.4 16 16 NNE 3 6 29.94 1014 10 16 N/A
1:53 pm 13:53 Sunny 103 39.4 49 9.4 16 16 VRB 6 9 29.92 1013 10 16 N/A
2:53 pm 14:53 Sunny 103 39.4 51 10.6 18 18 SSW 15 24 29.90 1013 10 16 N/A
3:53 pm 15:53 Sunny 101 38.3 50 10 18 18 SSW 13 20 29.88 1012 10 16 N/A
4:53 pm 16:53 Sunny 103 39.4 49 9.4 16 16 SSW 10 17 29.87 1012 10 16 N/A
5:53 pm 17:53 Sunny 102 38.9 49 9.4 17 17 SE 7 11 29.85 1011 10 16 N/A
6:53 pm 18:53 Sunny 102 38.9 49 9.4 17 17 S 12 19 29.84 1011 10 16 N/A
7:53 pm 19:53 Clear 101 38.3 50 10 18 18 SSW 8 13 29.85 1011 10 16 N/A
8:53 pm 20:53 Clear 99 37.2 51 10.6 20 20 S 8 13 29.85 1011 10 16 N/A
9:53 pm 21:53 Clear 98 36.7 51 10.6 20 20 S 8 13 29.87 1012 10 16 N/A
10:53 pm 22:53 Clear 96 35.6 52 11.1 23 23 S 9 15 29.87 1012 10 16 N/A
11:53 pm 23:53 Clear 95 35 52 11.1 23 23 SSE 5 7 29.88 1012 10 16 N/A

Powered by AerisWeather